This is the latest recevied weather packets stored in our database for station/object PA5MB-15. If no packets are shown the sender has not sent any weather packets the latest 1 day(s).
| Time | Temp. | Humidity | Pressure | Rain* | Wind** | Luminosity | Snow |
|---|---|---|---|---|---|---|---|
| 1778005523 | 12.78° C | 77% | 1010.5 hPa | 0 mm | 1.79 m/s, 1° | 3 W/m² | - |
| 1778005232 | 12.78° C | 77% | 1010.5 hPa | 0 mm | 1.79 m/s, 14° | 3 W/m² | - |
| 1778004932 | 12.78° C | 77% | 1010.5 hPa | 0 mm | 2.24 m/s, 6° | 4 W/m² | - |
| 1778004631 | 12.78° C | 77% | 1010.5 hPa | 0 mm | 1.79 m/s, 348° | 4 W/m² | - |
| 1778004330 | 12.78° C | 76% | 1010.5 hPa | 0 mm | 1.79 m/s, 347° | 5 W/m² | - |
| 1778004031 | 13.33° C | 76% | 1010.5 hPa | 0 mm | 1.79 m/s, 1° | 5 W/m² | - |
| 1778003735 | 13.33° C | 76% | 1010.4 hPa | 0 mm | 1.79 m/s, 353° | 6 W/m² | - |
| 1778003421 | 13.33° C | 77% | 1010.4 hPa | 0 mm | 2.24 m/s, 355° | 7 W/m² | - |
| 1778003131 | 13.33° C | 77% | 1010.4 hPa | 0 mm | 1.34 m/s, 354° | 8 W/m² | - |
| 1778002832 | 13.33° C | 77% | 1010.3 hPa | 0 mm | 1.79 m/s, 2° | 8 W/m² | - |
| 1778002532 | 13.33° C | 77% | 1010.4 hPa | 0 mm | 1.79 m/s, 352° | 9 W/m² | - |
| 1778002224 | 13.33° C | 76% | 1010.4 hPa | 0 mm | 1.79 m/s, 345° | 9 W/m² | - |
| 1778001939 | 13.33° C | 76% | 1010.4 hPa | 0 mm | 1.79 m/s, 356° | 10 W/m² | - |
| 1778001631 | 13.33° C | 76% | 1010.4 hPa | 0 mm | 1.79 m/s, 15° | 11 W/m² | - |
| 1778001331 | 13.89° C | 77% | 1010.4 hPa | 0 mm | 1.79 m/s, 350° | 11 W/m² | - |
| 1778001055 | 13.89° C | 77% | 1010.4 hPa | 0 mm | 1.79 m/s, 359° | 12 W/m² | - |
| 1778000726 | 13.89° C | 76% | 1010.5 hPa | 0 mm | 1.79 m/s, 7° | 11 W/m² | - |
| 1778000434 | 14.44° C | 76% | 1010.5 hPa | 0 mm | 1.34 m/s, 343° | 11 W/m² | - |
| 1778000131 | 14.44° C | 77% | 1010.5 hPa | 0 mm | 1.34 m/s, 0° | 12 W/m² | - |
| 1777999831 | 14.44° C | 77% | 1010.6 hPa | 0 mm | 1.34 m/s, 357° | 13 W/m² | - |
| 1777999530 | 13.89° C | 77% | 1010.6 hPa | 0 mm | 1.34 m/s, 359° | 12 W/m² | - |
| 1777999231 | 13.89° C | 78% | 1010.6 hPa | 0 mm | 1.79 m/s, 354° | 10 W/m² | - |
| 1777998931 | 13.89° C | 79% | 1010.6 hPa | 0 mm | 1.34 m/s, 10° | 11 W/m² | - |
| 1777998620 | 14.44° C | 79% | 1010.6 hPa | 0 mm | 1.79 m/s, 350° | 16 W/m² | - |
| 1777998330 | 14.44° C | 78% | 1010.6 hPa | 0 mm | 1.34 m/s, 339° | 22 W/m² | - |
* Rain latest hour (hover to see other rain measurements)
** Current wind speed in m/s (hover to see current wind gust speed)